Regional Weather Roundup
Issued by NWS Green Bay, WI

Home | Current Version | Previous Version | Text Only | Print | Product List | Glossary On
Versions: 1 2 3 4 5 6 7 8 9 10 11 12 13 14 15 16 17 18 19 20 21 22 23 24 25 26 27 28 29 30 31 32 33 34 35 36 37 38 39 40 41 42 43 44 45 46 47 48 49 50
000
ASUS43 KGRB 271500
RWRGRB

NORTH-CENTRAL AND NORTHEAST WISCONSIN REGIONAL WEATHER ROUNDUP
NATIONAL WEATHER SERVICE GREEN BAY WI
1000 AM CDT THU AUG 27 2015

WIZ005-009-010>012-018-019-271600-
NORTH CENTRAL WISCONSIN

CITY           SKY/WX    TMP DP  RH WIND       PRES   REMARKS
IRONWOOD       SUNNY     61  54  77 SW7       30.12R
MANITOWISH WTR NOT AVBL
ARBOR VITAE    NOT AVBL
EAGLE RIVER    NOT AVBL
LAND O LAKES   NOT AVBL
RHINELANDER    MOSUNNY   62  53  72 SW6       30.17S
PHILLIPS       NOT AVBL
ANTIGO         NOT AVBL
TOMAHAWK       NOT AVBL
MERRILL        NOT AVBL
$$

WIZ013-073-271600-
NORTHEAST WISCONSIN

CITY           SKY/WX    TMP DP  RH WIND       PRES   REMARKS
IRON MOUNTAIN  CLOUDY    53  52  96 CALM      30.16F FOG
MARINETTE      SUNNY     61  52  72 E5        30.15F
$$

WIZ017-030-035>037-045-271600-
CENTRAL WISCONSIN

CITY           SKY/WX    TMP DP  RH WIND       PRES   REMARKS
MEDFORD        NOT AVBL
WAUSAU         SUNNY     62  54  74 CALM      30.16S
MOSINEE        SUNNY     61  57  88 CALM      30.18S
MARSHFIELD     SUNNY     65  55  70 S3        30.16F
WISC RAPIDS    SUNNY     65  56  72 VRB3      30.18F
STEVENS POINT  NOT AVBL
WAUPACA        NOT AVBL
SHAWANO        NOT AVBL
CLINTONVILLE   NOT AVBL
WAUTOMA        NOT AVBL
$$

WIZ038-039-048-051-271600-
FOX VALLEY

CITY           SKY/WX    TMP DP  RH WIND       PRES   REMARKS
NWS GREEN BAY  FOG       57  56  96 CALM      30.18R VSB 1
APPLETON       SUNNY     63  59  88 CALM      30.17R
OSHKOSH        SUNNY     65  57  75 VRB3      30.18R
FOND DU LAC    SUNNY     64  58  80 SW6       30.18S
$$

WIZ022-050-052-271600-
EAST CENTRAL WISCONSIN

CITY           SKY/WX    TMP DP  RH WIND       PRES   REMARKS
EPHRAIM        NOT AVBL
STURGEON BAY   PTSUNNY   57  55  94 CALM      30.18F
MANITOWOC      NOT AVBL
SHEBOYGAN      SUNNY     66  58  75 CALM      30.18R
$$

LMZ563-521-522-541>543-271600-
LAKESHORE

STATION/POSITION TIME  TEMP    WIND        PRES    VSBY  WAVE
                       AIR SEA DIR/SP/G                  HT/PER
                 (UTC) (F)     (DEG/KT/KT) (MB)    (MI)  (FT/S)
SHEBOYGAN LKSHOR 1400   49     160/  9/ 10 1022.4F
ALGOMA MARINA    1414             CALM       N/A
NORTHPORT PIER   1400   63     120/  3/  4 1021.7F
N MID LAKE BUOY  1350   59 64  110/  4/  4 1022.3F         0
S GREEN BAY BUOY 1400   53     360/  4/  6 1023.2
SISTER BAY LKSHO 1449   70     140/  4/  7   N/A
CHAMBERS ISLAND  1400   59      80/  2/  5 1022.0F
$$


USA.gov is the U.S. government's official web portal to all federal, state and local government web resources and services.